This demonstration page uses our WeatherBlox Daily Observations layout. Learn more.

40.92945, -100.16068

Hourly Observations for December 3, 2019

Temp ( °F °C ) Dew Point ( °F °C ) Humidity (%) Winds ( mph kmh ) Pressure ( in mb ) Visibility ( mi km ) Precip ( " mm )
12:15 am 00:15 Clear 30 -1.3 27 -3 88 88 WNW 7 11 30.06 1018 10 16.0934 0 0
12:35 am 00:35 Clear 29 -1.7 27 -3 91 91 WNW 7 11 30.06 1018 10 16.0934 0 0
12:55 am 00:55 Clear 28 -2.1 26 -3.3 92 92 WNW 6 9 30.05 1018 10 16.0934 0 0
1:15 am 01:15 Clear 28 -2.3 26 -3.3 93 93 W 8 13 30.05 1018 10 16.0934 0 0
1:35 am 01:35 Clear 29 -1.5 27 -3 90 90 WNW 7 11 30.04 1017 10 16.0934 0 0
1:55 am 01:55 Clear 28 -2 26 -3.1 92 92 W 8 13 30.04 1017 10 16.0934 0 0
2:15 am 02:15 Clear 29 -1.9 26 -3.1 92 92 WNW 9 15 30.06 1018 10 16.0934 0 0
2:35 am 02:35 Clear 30 -1.2 27 -2.7 90 90 WNW 9 15 30.04 1017 10 16.0934 0 0
2:55 am 02:55 Clear 29 -1.5 27 -2.8 91 91 WNW 9 15 30.04 1017 10 16.0934 0 0
3:15 am 03:15 Clear 30 -1.2 28 -2.5 91 91 WNW 8 13 30.04 1017 10 16.0934 0 0
3:35 am 03:35 Clear 30 -1.3 27 -2.6 91 91 W 8 13 30.04 1017 10 16.0934 0 0
3:55 am 03:55 Clear 29 -1.7 27 -2.8 92 92 WNW 8 13 30.03 1017 10 16.0934 0 0
4:15 am 04:15 Clear 29 -1.9 27 -2.8 94 94 W 9 15 30.04 1017 10 16.0934 0 0
4:35 am 04:35 Clear 29 -1.6 27 -2.7 92 92 WNW 7 11 30.04 1017 10 16.0934 0 0
4:55 am 04:55 Clear 28 -2.4 26 -3.4 93 93 Calm 30.05 1018 10 16.0934 0 0
5:15 am 05:15 Clear 28 -2.5 26 -3.5 93 93 WNW 5 7 30.04 1017 10 16.0934 0 0
5:35 am 05:35 Clear 27 -2.9 25 -3.7 94 94 NW 5 7 30.06 1018 10 16.0934 0 0
5:55 am 05:55 Clear 27 -2.8 25 -3.7 94 94 WNW 5 7 30.04 1017 10 16.0934 0 0
6:15 am 06:15 Clear 27 -2.8 25 -3.8 93 93 W 6 9 30.04 1017 10 16.0934 0 0
6:35 am 06:35 Clear 27 -2.8 25 -3.7 94 94 W 7 11 30.04 1017 10 16.0934 0 0
6:55 am 06:55 Clear 27 -3 25 -4 93 93 W 7 11 30.05 1017 10 16.0934 0 0
7:15 am 07:15 Clear 27 -2.6 26 -3.4 94 94 WNW 8 13 30.04 1017 10 16.0934 0 0
7:35 am 07:35 Clear 28 -2.5 26 -3.5 93 93 WNW 7 11 30.04 1017 10 16.0934 0 0
7:55 am 07:55 Sunny 27 -2.6 26 -3.5 94 94 NW 3 6 30.05 1018 10 16.0934 0 0
8:15 am 08:15 Sunny 28 -2 26 -3.1 92 92 WNW 7 11 30.05 1017 10 16.0934 0 0
8:35 am 08:35 Sunny 30 -1 28 -2.5 90 90 WNW 12 19 30.04 1017 10 16.0934 0 0
8:55 am 08:55 Sunny 32 -0.2 28 -2 88 88 WNW 13 20 30.04 1017 10 16.0934 0 0
9:15 am 09:15 Sunny 32 0.1 29 -1.5 89 89 WNW 14 22 30.05 1017 10 16.0934 0 0
9:35 am 09:35 Sunny 33 0.7 30 -1.1 88 88 WNW 13 20 30.05 1018 10 16.0934 0 0
9:55 am 09:55 Sunny 34 1.2 30 -1 85 85 WNW 14 22 30.06 1018 10 16.0934 0 0
10:15 am 10:15 Sunny 35 1.6 30 -1 83 83 WNW 13 20 30.05 1018 10 16.0934 0 0
10:35 am 10:35 Sunny 36 2.1 31 -0.7 82 82 WNW 10 17 30.05 1017 10 16.0934 0 0
10:55 am 10:55 Sunny 37 2.8 31 -0.5 79 79 WNW 12 19 30.05 1018 10 16.0934 0 0
11:15 am 11:15 Sunny 38 3.4 32 -0.2 78 78 WNW 14 22 30.04 1017 10 16.0934 0 0
11:35 am 11:35 Sunny 39 4 32 0 75 75 WNW 13 20 30.03 1017 10 16.0934 0 0
11:55 am 11:55 Sunny 41 4.8 33 0.4 73 73 WNW 16 26 30.02 1017 10 16.0934 0 0
12:15 pm 12:15 Sunny 41 5.2 33 0.4 71 71 WNW 16 26 30.02 1016 10 16.0934 0 0
12:35 pm 12:35 Sunny 42 5.7 33 0.4 69 69 WNW 16 26 30.01 1016 10 16.0934 0 0
12:55 pm 12:55 Sunny 44 6.6 34 1 68 68 WNW 12 19 29.99 1016 10 16.0934 0 0
1:15 pm 13:15 Sunny 45 7.4 34 1.2 65 65 WNW 10 17 29.99 1015 10 16.0934 0 0
1:35 pm 13:35 Sunny 46 8 35 1.4 63 63 NW 12 19 29.98 1015 10 16.0934 0 0
1:55 pm 13:55 Sunny 48 8.8 35 1.8 62 62 NW 10 17 29.97 1015 10 16.0934 0 0
2:15 pm 14:15 Sunny 48 9 36 2.2 63 63 WNW 8 13 29.96 1015 10 16.0934 0 0
2:35 pm 14:35 Sunny 49 9.5 36 2.3 61 61 NW 8 13 29.95 1014 10 16.0934 0 0
2:55 pm 14:55 Sunny 49 9.5 37 2.6 62 62 NW 8 13 29.96 1014 10 16.0934 0 0
3:15 pm 15:15 Sunny 50 10 37 2.7 61 61 WNW 12 19 29.96 1015 10 16.0934 0 0
3:35 pm 15:35 Sunny 49 9.6 33 0.7 54 54 NW 13 20 29.96 1015 10 16.0934 0 0
3:55 pm 15:55 Sunny 49 9.3 33 0.5 54 54 NW 16 26 29.98 1015 10 16.0934 0 0
4:15 pm 16:15 Sunny 47 8.5 33 0.5 57 57 NW 14 22 29.99 1015 10 16.0934 0 0
4:35 pm 16:35 Sunny 46 7.5 32 0 59 59 NW 14 22 29.99 1016 10 16.0934 0 0
4:55 pm 16:55 Sunny 42 5.5 32 0 68 68 NW 9 15 30.02 1017 10 16.0934 0 0
5:15 pm 17:15 Clear 40 4.6 32 0 72 72 WNW 8 13 30.03 1017 10 16.0934 0 0
5:35 pm 17:35 Clear 38 3.3 31 -0.6 76 76 NW 8 13 30.04 1017 10 16.0934 0 0
5:55 pm 17:55 Clear 35 1.6 31 -0.8 84 84 WNW 10 17 30.07 1018 10 16.0934 0 0
6:15 pm 18:15 Clear 36 2 30 -1 81 81 WNW 8 13 30.07 1018 10 16.0934 0 0
6:35 pm 18:35 Clear 34 1.2 29 -1.5 82 82 W 6 9 30.09 1019 10 16.0934 0 0
6:55 pm 18:55 Clear 33 0.3 29 -1.5 88 88 WNW 6 9 30.08 1019 10 16.0934 0 0
7:15 pm 19:15 Clear 31 -0.3 28 -2 88 88 NW 6 9 30.09 1019 10 16.0934 0 0
7:35 pm 19:35 Clear 31 -0.5 28 -2.1 89 89 NW 8 13 30.09 1019 10 16.0934 0 0
7:55 pm 19:55 Clear 32 0 29 -1.8 88 88 WNW 5 7 30.09 1019 10 16.0934 0 0
8:15 pm 20:15 Clear 31 -0.5 28 -2 90 90 WNW 7 11 30.08 1019 10 16.0934 0 0
8:35 pm 20:35 Clear 30 -1 28 -2.5 90 90 W 8 13 30.09 1019 10 16.0934 0 0
8:55 pm 20:55 Clear 30 -1.3 28 -2.5 92 92 W 6 9 30.09 1019 10 16.0934 0 0
9:15 pm 21:15 Clear 30 -1.1 28 -2.5 90 90 NW 8 13 30.1 1019 10 16.0934 0 0
9:35 pm 21:35 Clear 29 -1.5 27 -2.8 91 91 WNW 8 13 30.1 1019 10 16.0934 0 0
9:55 pm 21:55 Clear 29 -1.5 27 -2.6 92 92 WNW 8 13 30.1 1019 10 16.0934 0 0
10:15 pm 22:15 Clear 30 -1.2 27 -2.6 90 90 WNW 7 11 30.1 1019 10 16.0934 0 0
10:35 pm 22:35 Clear 30 -1.1 28 -2.5 90 90 NW 5 7 30.11 1020 10 16.0934 0 0
10:55 pm 22:55 Clear 29 -1.5 27 -2.7 92 92 NW 5 7 30.11 1020 10 16.0934 0 0
11:15 pm 23:15 Clear 29 -1.5 27 -2.6 92 92 WNW 8 13 30.12 1020 10 16.0934 0 0
11:35 pm 23:35 Clear 30 -1.2 28 -2.5 91 91 WNW 9 15 30.12 1020 10 16.0934 0 0
11:55 pm 23:55 Clear 31 -0.7 28 -2.1 90 90 WNW 7 11 30.1 1019 10 16.0934 0 0

Powered by AerisWeather